Location: Antioch Baptist Church
(32.6696°N, 85.7327°W)
Time: 00:11:04
(UTC+00:00)

Cosmos 2218 Rocket - Pass Details

Date: 14 July 2020
Orbit: 955 x 1007 km, 82.9° (Epoch: 12 August)

Event Time Altitude Azimuth Distance (km) Brightness Sun altitude
Exits shadow 04:09:49 63° 51° (NE) 1,097 4.2 -30.8°
Drops below altitude 10° 04:15:18 10° 11° (NNE) 2,740 6.9 -31.3°
Sets 04:17:49 0° 9° (N) 3,684 7.8 -31.5°
